Regional Weather Roundup
Issued by NWS Sioux Falls, SD

Home | Current Version | Previous Version | Text Only | Print | Product List | Glossary On
Versions: 1 2 3 4 5 6 7 8 9 10 11 12 13 14 15 16 17 18 19 20 21 22 23 24 25 26 27 28 29 30 31 32 33 34 35 36 37 38 39 40 41 42 43 44 45 46 47 48 49 50
000
ASUS43 KFSD 281610
RWRFSD

WEATHER ROUNDUP FOR SE SOUTH DAKOTA/SW MINNESOTA/NW IOWA
NATIONAL WEATHER SERVICE SIOUX FALLS SD
1100 AM CDT MON JUL 28 2014

NOTE: "FAIR" INDICATES FEW OR NO CLOUDS BELOW 12,000 FEET WITH NO
SIGNIFICANT WEATHER AND OR OBSTRUCTIONS TO VISIBILITY.


SDZ038>040-050-052>070-281700-
SOUTHEAST SOUTH DAKOTA

CITY           SKY/WX    TMP DP  RH WIND       PRES   REMARKS
CHAMBERLAIN    SUNNY     68  54  60 N8        30.33F
HURON          MOSUNNY   68  56  65 N12       30.30S
MADISON        FAIR      66  57  72 N13G20    30.29F
MITCHELL       SUNNY     69  57  65 N12       30.31S
SIOUX FALLS    PTSUNNY   69  59  70 N10       30.27F
WINNER         FAIR      71  51  49 NE5       30.34S
YANKTON        MOSUNNY   68  55  64 N14       30.29S
$$

MNZ071-072-080-081-089-090-097-098-281700-
SOUTHWEST MINNESOTA

CITY           SKY/WX    TMP DP  RH WIND       PRES   REMARKS
FAIRMONT       CLOUDY    70  57  64 N8        30.24S
JACKSON        CLOUDY    68  55  64 VRB3      30.26S
LUVERNE        PTSUNNY   68  57  68 NE6       30.27F
MARSHALL       PTSUNNY   66  57  72 N12       30.25F
MONTEVIDEO     PTSUNNY   70  63  78 N5        30.27S
PIPESTONE      MOSUNNY   66  57  72 NE9       30.27F
REDWOOD FALLS  CLOUDY    70  60  70 VRB7      30.25R
TRACY          CLOUDY    66  60  81 CALM      30.27S
WINDOM         PTSUNNY   66  57  72 NW9       30.26S
WORTHINGTON    CLOUDY    64  57  77 NE7       30.27F
$$

IAZ001>003-012>014-020>022-031-032-NEZ013-014-SDZ071-281700-
NORTHWEST IOWA

CITY           SKY/WX    TMP DP  RH WIND       PRES   REMARKS
CHEROKEE       CLOUDY    64  61  91 N7        30.26S
DENISON        CLOUDY    64  61  88 VRB3      30.24S
ESTHERVILLE    CLOUDY    66  58  75 NW7       30.25S
LE MARS        PTSUNNY   68  59  73 N12       30.27S
ORANGE CITY    PTSUNNY   68  57  68 N9        30.27R
SHELDON        CLOUDY    66  59  77 N10       30.26S
SIOUX CITY     PTSUNNY   71  56  58 N13       30.26F
SPENCER        NOT AVBL
STORM LAKE     PTSUNNY   63  63 100 N9        30.26S
$$

ABBREVIATIONS USED IN REMARKS
   TC - TEMPERATURE IN CELSIUS
  WCI - WIND CHILL INDEX
   HX - HEAT INDEX
  VSB - VISIBILITY



USA.gov is the U.S. government's official web portal to all federal, state and local government web resources and services.